Flag for Canada Weather past 2 weeks in Chilliwack, British Columbia, Canada

Now
56 °F

Cool.


Feels Like: 56 °F
Forecast: 56 / 70 °F
Wind: 2 mph from Southwest

Location: Agassiz

Current Time: May 23, 2015 at 8:21:26 AM

Latest Report: May 23, 2015 at 8:00 AM


Visibility: N/A

Pressure: 30.14 "Hg

Humidity: 91%

Dew point: 54 °F

Location of ChilliwackLocation

Historic Weather in Chilliwack — Graph

°F

Chilliwack temperature yesterday

Maximum temperature yesterday: 70 °F (at 2:00 PM)
Minimum temperature yesterday: 55 °F (at 5:00 AM)
Average temperature yesterday: 63 °F

Past Weeks' High & Low Weather Summary

 TemperatureHumidityPressure
High79 °F (May 20, 6:00 PM)100% (May 14, 12:00 AM)30.12 "Hg (May 14, 12:00 AM)
Low46 °F (May 12, 6:00 AM)14% (May 8, 5:00 PM)29.77 "Hg (May 12, 1:00 PM)
Average63 °F70%29.94 "Hg
* Reported May 8 7:00 AM — May 23 7:00 AM, Chilliwack, Weather by CustomWeather, © 2015

Note: Actual official high and low records may vary slightly from our data, if they occured in-between our weather recording intervals... More about our weather records

Advertising

Chilliwack weather history for previous 24 hours

 ConditionsComfort  
Time TempWeatherWind HumidityBarometerVisibility
7:00 AM
Sat, May 23
56 °FCool.2 mph87%30.12 "HgN/A
6:00 AM56 °FCool.3 mph93%30.10 "HgN/A
5:00 AM57 °FCool.2 mph91%30.09 "HgN/A
4:00 AM59 °FCool.1 mph83%30.09 "HgN/A
3:00 AM60 °FCool.2 mph80%30.07 "HgN/A
2:00 AM60 °FCool.1 mph79%30.06 "HgN/A
1:00 AM60 °FCool.No wind81%30.05 "HgN/A
12:00 AM61 °FCool.3 mph78%30.03 "HgN/A
11:00 PM
Fri, May 22
60 °FCool.1 mph86%30.03 "HgN/A
10:00 PM62 °FMild.2 mph74%30.01 "HgN/A
9:00 PM63 °FMild.1 mph84%29.98 "HgN/A
8:00 PM63 °FMild.2 mph84%29.97 "HgN/A
7:00 PM66 °FMild.2 mph73%29.96 "HgN/A
6:00 PM65 °FMild.3 mph74%29.95 "HgN/A
5:00 PM64 °FMild.3 mph76%29.95 "HgN/A
4:00 PM66 °FMild.6 mph70%29.94 "HgN/A
3:00 PM70 °FMild.10 mph65%29.93 "HgN/A
2:00 PM70 °FMild.8 mph68%29.92 "HgN/A
1:00 PM70 °FMild.7 mph65%29.92 "HgN/A
12:00 PM67 °FMild.7 mph72%29.91 "HgN/A
11:00 AM67 °FMild.5 mph74%29.91 "HgN/A
10:00 AM67 °FMild.5 mph73%29.91 "HgN/A
9:00 AM65 °FMild.3 mph76%29.92 "HgN/A
8:00 AM63 °FMild.2 mph84%29.91 "HgN/A
Weather by CustomWeather, © 2015

See weather overviewHow to use our weather pages